Regional Weather Roundup
Issued by NWS

Home | Current Version | Previous Version | Text Only | Print | Product List | Glossary Off
Versions: 1 2 3 4 5 6 7 8 9 10 11 12 13 14 15 16 17 18 19 20 21 22 23 24 25 26 27 28 29 30 31 32 33 34 35 36 37 38 39 40 41 42 43 44 45 46 47 48 49 50

000
ASUS43 KLSX 040907
RWRMO

WEATHER SUMMARY FOR MISSOURI
NATIONAL WEATHER SERVICE SPRINGFIELD MO
400 AM CDT WED MAY 04 2016

NOTE: "FAIR" INDICATES FEW OR NO CLOUDS BELOW 12,000 FEET WITH NO
       SIGNIFICANT WEATHER AND/OR OBSTRUCTIONS TO VISIBILITY.
       CURRENT SKY AND/OR WEATHER CONDITIONS ARE NOT AVAILABLE FOR
       CHILLICOTHE AND FARMINGTON.

MOZ001>031-035>038-043-044-053-054-041000-
...NORTHERN AND WESTERN MISSOURI...

CITY           SKY/WX    TMP DP  RH WIND       PRES   REMARKS
KANSAS CTY INT CLOUDY    56  43  61 W8        29.83F
KANSAS C DTWN  MOCLDY    58  45  62 W10       29.83F
LEE`S SUMMIT   PTCLDY    55  44  66 SW10      29.84F
ST JOSEPH      CLEAR     58  44  60 NW15      29.84R
CHILLICOTHE      N/A     59  44  57 VRB7      29.79S
KIRKSVILLE     MOCLDY    57  42  57 W9        29.75S

$$
MOZ066>068-077>081-088>096-101>105-041000-
...SOUTHWEST MISSOURI...

CITY           SKY/WX    TMP DP  RH WIND       PRES   REMARKS
SPRINGFIELD    CLEAR     52  43  71 SW9       29.90F
JOPLIN         CLEAR     54  46  74 SW10      29.94F

$$
MOZ032>034-039>042-045>050-055>058-069>072-041000-
...CENTRAL MISSOURI...

CITY           SKY/WX    TMP DP  RH WIND       PRES   REMARKS
COLUMBIA       MOCLDY    56  46  69 SW13      29.78F
JEFFERSON CITY CLEAR     56  45  66 W6        29.79F
ROLLA          CLEAR     47  42  83 SW12      29.81F
SEDALIA        PTCLDY    54  46  74 SW13      29.82F
WHITEMAN AFB   CLEAR     55  47  74 SW9       29.81F
WARRENSBURG    PTCLDY    54  45  71 SW10      29.83F
OSAGE BEACH    CLEAR     54  39  58 SW7       29.84F

$$
MOZ051-052-059>065-041000-
...EAST CENTRAL MISSOURI...

CITY           SKY/WX    TMP DP  RH WIND       PRES   REMARKS
ST LOUIS INTL  CLOUDY    57  41  55 SW14      29.75F
SPIRIT OF STL  CLOUDY    55  43  63 SW12      29.76F
ST CHARLES     CLOUDY    52  46  80 S5        29.74F

$$
MOZ072>076-082>087-097>100-106>115-041000-
...SOUTH CENTRAL AND SOUTHEAST MISSOURI...

CITY           SKY/WX    TMP DP  RH WIND       PRES   REMARKS
CAPE GIRARDEAU CLEAR     48  46  93 W5        29.86F
FARMINGTON     PTCLDY    46  42  86 S5        29.84F
POPLAR BLUFF   CLEAR     50  47  89 W6        29.87F
WEST PLAINS    CLEAR     47  39  74 SW5       29.91F

$$


USA.gov is the U.S. government's official web portal to all federal, state and local government web resources and services.